Simultaneous Nadir Overpasses (SNOs) Predictions

Prediction of SNOs between GOES-17 and METOP-C Satellite Orbit:

Table of predicted SNOs for the next 14.0 days since TLE Epoch: 11/19/2022
Index Date Time (GOES-17) GOES-17 Lat,Lon METOP-C Lat,Lon Distance(km) Time Diff (sec)
1 11/20/2022 06:44:24 0.03,-137.33 -0.15,-138.16 95.12 80
2 11/21/2022 06:21:04 0.03,-137.32 0.95,-133.16 473.56 80
3 11/22/2022 18:39:57 -0.03,-137.32 0.06,-137.73 46.68 80
4 11/25/2022 06:40:57 0.02,-137.28 0.01,-137.32 4.62 80
5 11/27/2022 18:39:11 -0.01,-137.24 -0.11,-136.89 40.84 80
6 11/29/2022 06:58:09 0.00,-137.20 -0.97,-141.46 486.16 80
7 11/30/2022 06:34:50 -0.00,-137.18 0.14,-136.47 80.94 80
8 12/01/2022 18:53:43 0.00,-137.16 0.87,-141.03 441.70 80
9 12/02/2022 18:35:44 0.00,-137.14 -0.24,-136.04 125.31 80
